カタログに戻る

ONEWEB-0617

運用中通信PO
NORAD 55158·PAYLOAD·🇬🇧 United Kingdom

打ち上げ Jan 10, 2023 から Cape Canaveral Space Force Station

Loading…

次のパス (今後24時間)

TLE

最新Source: CelesTrak SupGP

元期: Sep 14, 2026, 15:52 UTC

1 55158C 23004U   26257.66127732  .00001976  00000+0  55834-2 0  2575
2 55158  87.8974   3.2827 0001763 115.6773 347.5896 13.11415655    13

AllMySatでONEWEB-0617をリアルタイム追跡

Download on the App Store